AirNav   Everest Fuels
 
 1052 users online  

N27 Bradford County Airport
Towanda, Pennsylvania, USA

GOING TO TOWANDA?


FAA INFORMATION EFFECTIVE 10 SEPTEMBER 2020

Location

FAA Identifier: N27
Lat/Long: 41-44-24.0000N 076-26-49.7000W
41-44.400000N 076-26.828333W
41.7400000,-76.4471389
(estimated)
Elevation: 730.3 ft. / 222.6 m (surveyed)
Variation: 12W (2000)
From city: 2 miles S of TOWANDA, PA
Time zone: UTC -4 (UTC -5 during Standard Time)
Zip code: 18848

Airport Operations

Airport use: Open to the public
Activation date: 07/1938
Control tower: no
ARTCC: NEW YORK CENTER
FSS: WILLIAMSPORT FLIGHT SERVICE STATION
NOTAMs facility: IPT (NOTAM-D service available)
Attendance: M-F 0800-1700, MAR-OCT SAT-SUN 0800-1600, NOV-FEB SAT-SUN UNATTENDED
FOR SVC AFT HRS CALL 570-637-4902.
Wind indicator: lighted
Segmented circle: yes
Lights: ACTVT REIL RWY 05 & 23; PAPI RWY 05 & 23; MIRL RWY 05/23 - 123.0.
Beacon: white-green (lighted land airport)
Operates sunset to sunrise.

Airport Communications

CTAF/UNICOM: 123.0
WX AWOS-3: 119.925 (570-265-1024)
BINGHAMTON APPROACH: 118.6
BINGHAMTON DEPARTURE: 118.6
  • APCH/DEP SVC PRVDD BY NEW YORK ARTCC ON FREQS 132.175/298.9 (ELK MOUNTAIN RCAG) WHEN BINGHAMTON APCH CTL CLSD.

Nearby radio navigation aids

VOR radial/distance  VOR name  Freq  Var
FQMr040/28.2WILLIAMSPORT VOR/DME114.4009W
CFBr219/28.6BINGHAMTON VOR/DME112.2010W
ULWr141/33.4ELMIRA VOR/DME109.6512W

 
NDB name  Hdg/Dist  Freq  Var  ID
ALPINE167/33.124512WALP .- .-.. .--.

Airport Services

Fuel available: 100LL JET-A
Parking: hangars and tiedowns
Airframe service: MAJOR
Powerplant service: MAJOR
Bottled oxygen: NONE
Bulk oxygen: NONE

Runway Information

Runway 5/23

Dimensions: 4301 x 75 ft. / 1311 x 23 m
Surface: asphalt, in fair condition
Weight bearing capacity: 
Single wheel: 12.0
Runway edge lights: medium intensity
RUNWAY 5  RUNWAY 23
Latitude: 41-44.110687N41-44.690593N
Longitude: 076-27.099407W076-26.556652W
Elevation: 730.2 ft.713.5 ft.
Traffic pattern: leftleft
Runway heading: 047 magnetic, 035 true227 magnetic, 215 true
Markings: nonprecision, in fair conditionnonprecision, in fair condition
Visual slope indicator: 2-light PAPI on left (3.00 degrees glide path)2-light PAPI on left (3.00 degrees glide path)
Runway end identifier lights: yesyes
Touchdown point: yes, no lightsyes, no lights

Airport Ownership and Management from official FAA records

Ownership: Publicly-owned
Owner: BRADFORD COUNTY AIRPORT AUTHORITY
415 AIRPORT RD.
TOWANDA, PA 18848
Phone 570-265-4900
Manager: SCOTT HAUSER
415 AIRPORT RD.
TOWANDA, PA 18848
Phone 570-265-4900

Airport Operational Statistics

Aircraft based on the field: 30
Single engine airplanes: 28
Multi engine airplanes: 2
    
Aircraft operations: avg 63/day *
65% transient general aviation
35% local general aviation
<1% military
* for 12-month period ending 16 July 2019

Additional Remarks

COLD TEMPERATURE AIRPORT. ALTITUDE CORRECTION REQUIRED AT OR BELOW -24C.
FOR CD CTC NEW YORK ARTCC AT 631-468-1425.

Instrument Procedures

NOTE: All procedures below are presented as PDF files. If you need a reader for these files, you should download the free Adobe Reader.

NOT FOR NAVIGATION. Please procure official charts for flight.
FAA instrument procedures published for use from 10 September 2020 at 0901Z to 08 October 2020 at 0900z.

 
IAPs - Instrument Approach Procedures
RNAV (GPS) RWY 23 **CHANGED**   download (195KB)
RNAV (GPS)-A **CHANGED**   download (189KB)
NOTE: Special Take-Off Minimums/Departure Procedures apply   download (283KB)

Other nearby airports with instrument procedures:

KCZG - Tri-Cities Airport (26 nm NE)
KELM - Elmira/Corning Regional Airport (32 nm NW)
9N3 - Seamans Field Airport (32 nm E)
KBGM - Greater Binghamton Airport/Edwin A Link Field (35 nm NE)
KIPT - Williamsport Regional Airport (37 nm SW)
 
Loc | Ops | Rwys | IFR | FBO | Links
Com | Nav | Svcs | Stats | Notes
Area around N27 (Bradford County Airport)
 
Road maps at: MapQuest Bing Google
 
Aerial photo
WARNING: Photo may not be current or correct
Aerial photo of N27 (Bradford County Airport)
looking southwest

Do you have a better or more recent aerial photo of Bradford County Airport that you would like to share? If so, please send us your photo.

 
Sectional chart

 
Airport distance calculator
Flying to Bradford County Airport? Find the distance to fly.

From to N27

Sunrise and sunset
Times for 30-Sep-2020
 Local
(UTC-4)
 Zulu
(UTC)
Morning civil twilight06:3610:36
Sunrise07:0411:04
Sunset18:4722:47
Evening civil twilight19:1523:15

Current date and time
Zulu (UTC)  01-Oct-2020 01:32:40
Local (UTC-4)  30-Sep-2020 21:32:40
 
METAR
KELM 
32nm NW 
010053Z 23009G18KT 10SM FEW065 17/07 A2972 RMK AO2 SLP062 T01720067
KBGM 
35nm NE 
010053Z AUTO 19010KT 10SM CLR 13/06 A2974 RMK AO2 SLP071 T01280056
KIPT 
36nm SW 
010054Z 19007G16KT 160V230 10SM SCT065 OVC085 18/06 A2977 RMK AO2 SLP080 T01780061
KAVP 
40nm SE 
010054Z VRB05KT 10SM CLR 16/07 A2980 RMK AO2 SLP088 T01610067
KN38 
43nm W 
010115Z AUTO 22016G29KT 10SM BKN055 OVC065 14/07 A2976 RMK AO2
KITH 
44nm N 
010056Z 17009G16KT 10SM FEW060 14/07 A2973 RMK AO2 SLP067 T01390067
KHZL 
50nm SE 
010115Z AUTO 17003KT 10SM CLR 12/06 A2986 RMK AO2
TAF
KELM 
32nm NW 
301725Z 3018/0118 25015G25KT P6SM BKN060 FM010000 24010KT P6SM BKN060 FM011400 26010G18KT P6SM BKN060
KBGM 
35nm NE 
301725Z 3018/0118 24015G25KT P6SM BKN050 FM302300 21012G20KT P6SM BKN060 FM010700 23010KT P6SM BKN050 FM011400 26010G18KT P6SM BKN050
KIPT 
36nm SW 
302122Z 3021/0118 23010G18KT P6SM SCT050 SCT100 FM010000 20007KT P6SM BKN050 FM011200 26006KT P6SM SCT050 BKN250
NOTAMs
Click for the latest NOTAMs
NOTAMs are issued by the DoD/FAA and will open in a separate window not controlled by AirNav.

 

 
 

FBO, Fuel Providers, and Aircraft Ground Support

  
 Business Name 
 
 Contact 
 
 Services / Description 
 
Fuel Prices
 
Comments
  
Bradford County Airport Authority 570-265-4900
no information available

If you are affiliated with Bradford County Airport Authority and would like to show here your services, contact info, web link, logo, and more, click here
100LL Jet A
SS $3.85 $2.75 
 Updated 21-Sep-2020
 
   write
SS=Self service
Update Fuel Prices
 

Would you like to see your business listed on this page?

 If your business provides an interesting product or service to pilots, flight crews, aircraft, or users of the Bradford County Airport, you should consider listing it here.  To start the listing process, click on the button below
 
Add a business
 

Other Pages about Bradford County Airport

Update a link
 
Copyright © AirNav, LLC. All rights reserved. Privacy Policy  Contact